Regional Weather Roundup
Issued by NWS

Home | Current Version | Previous Version | Graphics & Text | Print | Product List | Glossary On
Versions: 1 2 3 4 5 6 7 8 9 10 11 12 13 14 15 16 17 18 19 20 21 22 23 24 25 26 27 28 29 30 31 32 33 34 35 36 37 38 39 40 41 42 43 44 45 46 47 48 49 50
000
ASUS43 KMKX 241254
RWRWI

WISCONSIN REGIONAL WEATHER ROUNDUP
NATIONAL WEATHER SERVICE MILWAUKEE/SULLIVAN WI
800 AM CDT SUN MAY 24 2015

NOTE: "FAIR" INDICATES FEW OR NO CLOUDS BELOW 12,000 FEET WITH NO
SIGNIFICANT WEATHER AND/OR OBSTRUCTIONS TO VISIBILITY.

WIZ001-002-006>008-014>016-023>028-241400-
NORTHWEST WISCONSIN

CITY           SKY/WX    TMP DP  RH WIND       PRES   REMARKS
SUPERIOR ARPT  CLOUDY    52  49  89 CALM      30.11F
ASHLAND        PTSUNNY   55  49  80 CALM      30.13F
HAYWARD        CLOUDY    56  50  80 N6        30.12F
SIREN          CLOUDY    56  51  81 CALM      30.10S
CUMBERLAND     CLOUDY    59  46  63 E7        30.10S
RICE LAKE      CLOUDY    60  46  59 E3        30.11F
CHETEK         CLOUDY    59  49  69 CALM      30.10F
LADYSMITH      PTSUNNY   59  45  59 E6        30.14F
EAU CLAIRE     CLOUDY    58  49  72 NE3       30.09F
MENOMONIE      CLOUDY    58  47  67 E6        30.09S
NEW RICHMOND   CLOUDY    58  47  65 E6        30.08S
OSCEOLA        CLOUDY    58  51  78 E3        30.10F
$$

WIZ003>005-009-010-017-018-241400-
NORTH CENTRAL WISCONSIN

CITY           SKY/WX    TMP DP  RH WIND       PRES   REMARKS
MANITOWISH WTR CLOUDY    55  53  94 CALM      30.15F
ARBOR VITAE    CLOUDY    57  51  80 CALM      30.15F
WOODRUFF       CLOUDY    57  51  80 CALM      30.15F
RHINELANDER    CLOUDY    58  49  72 CALM      30.16F
EAGLE RIVER    CLOUDY    57  49  76 CALM      30.15F
LAND O LAKES   CLOUDY    56  49  76 CALM      30.16F
PHILLIPS       CLOUDY    56  49  77 CALM      30.14F
TOMAHAWK       PTSUNNY   52  50  93 CALM      30.16F
MEDFORD        CLOUDY    54  48  80 CALM      30.13F
MERRILL        CLOUDY    53  50  89 CALM      30.15F
$$

WIZ029-030-035-036-043>047-241400-
CENTRAL WISCONSIN

CITY           SKY/WX    TMP DP  RH WIND       PRES   REMARKS
WAUSAU         CLOUDY    56  49  77 CALM      30.13F
MOSINEE        SUNNY     55  46  71 E5        30.15F
MARSHFIELD     CLOUDY    58  48  69 E5        30.14S
STEVENS POINT  CLOUDY    54  47  77 CALM      30.15S
WAUPACA        CLOUDY    56  51  85 CALM      30.16S
WAUTOMA        CLOUDY    54  51  89 CALM      30.16S
WISC RAPIDS    CLOUDY    59  46  62 CALM      30.14S
CAMP DOUGLAS   CLOUDY    54  54 100 SE5       30.11S
$$

WIZ011>013-019>022-031-037>040-048>050-241400-
NORTHEAST WISCONSIN

CITY           SKY/WX    TMP DP  RH WIND       PRES   REMARKS
ANTIGO         PTSUNNY   55  50  83 CALM      30.16F
SHAWANO        PTSUNNY   58  53  84 CALM      30.15F
OCONTO         PTSUNNY   57  49  76 CALM      30.14F
STURGEON BAY   PTSUNNY   61  45  55 SE5       30.18F
GREEN BAY      CLOUDY    58  48  69 CALM      30.16S
MANITOWOC      PTSUNNY   51  47  86 CALM      30.18R
APPLETON       PTSUNNY   59  48  67 VRB5      30.16S
CLINTONVILLE   CLOUDY    54  50  87 CALM      30.15S
OSHKOSH        CLOUDY    59  48  67 S7        30.15S
$$

WIZ032>034-041-042-053>061-241400-
SOUTHWEST WISCONSIN

CITY           SKY/WX    TMP DP  RH WIND       PRES   REMARKS
LA CROSSE      CLOUDY    59  50  72 SE6       30.09S
SPARTA         CLOUDY    52  49  90 CALM      30.12R
VIROQUA        CLOUDY    60  48  65 SE7       30.10F
BOSCOBEL       CLOUDY    57  51  80 CALM      30.12F
PRAIRIE DU CHI LGT RAIN  59  53  80 CALM      30.10S
PLATTEVILLE    CLOUDY    61  54  78 E5        30.12F
$$

WIZ056-057-062-063-064-067-068-241400-
SOUTH CENTRAL WISCONSIN

CITY           SKY/WX    TMP DP  RH WIND       PRES   REMARKS
REEDSBURG      CLOUDY    54  50  87 CALM      30.13F
BARABOO/DELLS  CLOUDY    57  49  75 S3        30.14S
LONE ROCK      CLOUDY    57  50  77 E5        30.14S
MINERAL POINT  LGT RAIN  59  54  82 SE3       30.14S
MADISON        CLOUDY    60  52  74 S3        30.15S
MIDDLETON      CLOUDY    58  52  79 CALM      30.16S
WATERTOWN      CLOUDY    59  51  74 CALM      30.15F
MONROE         LGT RAIN  61  52  72 S3        30.15S
JANESVILLE     PTSUNNY   63  50  63 CALM      30.16R
$$

WIZ051-052-058>065-066-070>072-241400-
SOUTHEAST WISCONSIN

CITY           SKY/WX    TMP DP  RH WIND       PRES   REMARKS
MILWAUKEE      CLOUDY    60  48  64 SE3       30.18S
WAUKESHA       MOSUNNY   55  48  76 S6        30.19S
MILWAUKEE/TIMM CLOUDY    55  46  71 CALM      30.18S
RACINE         CLOUDY    59  47  64 CALM      30.20S
BURLINGTON     CLOUDY    53  50  90 CALM      30.17S
KENOSHA        CLOUDY    60  53  77 CALM      30.18S
FOND DU LAC    CLOUDY    61  45  55 S5        30.16S
SHEBOYGAN      PTSUNNY   54  46  74 CALM      30.16F
WEST BEND      CLOUDY    54  48  82 CALM      30.18R
JUNEAU         CLOUDY    58  47  65 SE5       30.18S
$$

LSZ147-162-241400-
LAKE SUPERIOR

STATION/POSITION TIME  TEMP    WIND        PRES    WAVE
                       AIR SEA DIR/SP/G            HT/PER
                 (UTC) (F)     (DEG/KT/KT) (MB)    (FT/S)
W MID LAKE BUOY  1150   42 36  220/  8/ 10   N/A     1/ 3
DEVILS ISLAND    1200   57     230/  7/  8   N/A
PORT WING        1100   51     130/  2/  4   N/A
SAXON HARBOR     1000   52     190/  2/  3   N/A
$$

LMZ867-665-643>646-241400-
LAKE MICHIGAN

STATION/POSITION TIME  TEMP    WIND        PRES    WAVE
                       AIR SEA DIR/SP/G            HT/PER
                 (UTC) (F)     (DEG/KT/KT) (MB)    (FT/S)
CHAMBERS ISLAND  1100   60     180/  4/  8   N/A
N MID LAKE BUOY  1150   40 36  170/  8/ 10   N/A     1
SISTER BAY       1117   64     120/  5/  5   N/A
KEWAUNEE LAKESHO 1200   50     160/  2/  3   N/A
SHEBOYGAN LAKESH 1200   50     170/  6/  7   N/A
PORT WASHINGTON  1100   49      CALM  /  1   N/A
ATWATER BUOY     1200   48 46   CALM  /  2   N/A
MILWAUKEE LAKESH 1200   51      70/  1/  1   N/A
S MID LAKE BUOY  1150   45 38  170/  8/ 10   N/A
$$

TC  - TEMPERATURE IN CELSIUS
VSB - VISIBILITY IN STATUTE MILES
WCI - WIND CHILL INDEX
HX  - HEAT INDEX




USA.gov is the U.S. government's official web portal to all federal, state and local government web resources and services.